weather.gov     
National Weather Service

Regional Weather Roundup
NWS Homepage
This page is being discontinued on March 12, 2014.
The same data is available at this site. Please update your bookmarks.
Thank you, and we apologize for the inconvenience.
Please send an email to SR-SRH.Webmaster@noaa.gov with any concerns.


Current Version
Previous Version:    01  02  03  04  05  06  07  08  09  10  11  12  13  14  15  16  17  18  19  20  21  22  23  24  25  26  27  28  29  30  
   31  32  33  34  35  36  37  38  39  40  41  42  43  44  45  46  47  48  49  50  51  52  53  54  55  56  57  58  59  60  
[Printable]
703
ASUS41 KCLE 241410
RWRCLE
OHIO REGIONAL WEATHER ROUNDUP
NATIONAL WEATHER SERVICE CLEVELAND, OH
1000 AM EDT THU APR 24 2014

NOTE: "FAIR" INDICATES FEW OR NO CLOUDS BELOW 12,000 FEET WITH NO
SIGNIFICANT WEATHER AND/OR OBSTRUCTIONS TO VISIBILITY.

OHZ001>008-015>018-024>027-034-035-043-044-241500-
   NORTHWEST OHIO

CITY           SKY/WX    TMP DP  RH WIND       PRES   REMARKS
DEFIANCE       CLOUDY    49  24  37 SE10      30.15F
FINDLAY        PTSUNNY   49  19  30 E9        30.15S
TOLEDO EXPRESS PTSUNNY   48  21  34 SE9       30.17R
TOLEDO EXEC    CLOUDY    46  18  32 SE10      30.19R
LIMA           PTSUNNY   49  20  31 SE14      30.14S
$$

OHZ009>014-019>023-028>033-038-089-241500-
   NORTHEAST OHIO

CITY           SKY/WX    TMP DP  RH WIND       PRES   REMARKS
CLE-HOPKINS    CLOUDY    45  15  30 SE5       30.22S
CLE-LAKEFRONT  CLOUDY    44  19  36 S5        30.18S
CUY CO. ARPT   PTSUNNY   45  18  33 MISG      30.19S
LORAIN-ELYRIA  CLOUDY    46  19  34 SE7       30.19F
ASHTABULA      MOSUNNY   43  22  43 CALM      30.19S
AKRON-CANTON   CLOUDY    42  24  49 E5        30.18S
WOOSTER        CLOUDY    42  23  46 SE7       30.19S
MANSFIELD      CLOUDY    44  20  38 E9        30.16F
YOUNGSTOWN     PTSUNNY   42  22  44 SW3       30.18R
$$

OHZ042-051>053-060>062-070>072-077>081-241500-
  SOUTHWEST OHIO

CITY           SKY/WX    TMP DP  RH WIND       PRES   REMARKS
CINC-COVINGTON PTSUNNY   51  33  50 E10       30.10S
CINC-LUNKEN    CLOUDY    50  27  40 E10       30.12F
HAMILTON       CLOUDY    51  28  41 E8        30.13S
DAYTON         PTSUNNY   50  20  30 SE16      30.13S
WRIGHT-PAT AFB CLOUDY    51  17  26 E12       30.12F
DAYTON GENERAL CLOUDY    49  24  37 E13G18    30.11S
WILMINGTON     PTSUNNY   49  19  30 E15G25    30.11F
$$

OHZ036-037-039>041-045>050-054>059-063>069-073>076-082>088-241500-
  CENTRAL AND SOUTHEAST OHIO

CITY           SKY/WX    TMP DP  RH WIND       PRES   REMARKS
COLUMBUS       CLOUDY    50  13  22 E13       30.15F
OSU AIRPORT    CLOUDY    49  15  25 E9        30.15F
BOLTON FIELD   PTSUNNY   48  19  32 E8        30.16F
RICKENBACK AFB PTSUNNY   51  12  21 E9        30.15F
NEWARK         CLOUDY    47  18  31 E7        30.16F
MARION         CLOUDY    47  18  31 E8        30.16F
LANCASTER      CLOUDY    50  18  28 E12       30.16F
ZANESVILLE     PTSUNNY   45  21  38 E9        30.18F
NEW PHILLY     CLOUDY    43  20  39 E7        30.20F
$$




U.S. Dept. of Commerce
NOAA National Weather Service
1325 East West Highway
Silver Spring, MD 20910
E-mail: w-nws.webmaster@noaa.gov
Page last modified: May 16, 2007
NATIONAL WEATHER SERVICE: for Safety, for Work, for Fun - FOR LIFE